Location: Newark
(43.0000°N, 1.6781°W)
Time: 09:30:44
(UTC+00:00)

Altair - Visible Passes

Search period start: 07 October 2022 00:00
Search period end: 17 October 2022 00:00
Orbit: 1501 x 1682 km, 47.2° (Epoch: 06 October)

Date Brightness Start Highest point End Pass type
(mag) Time Alt. Az. Time Alt. Az. Time Alt. Az.
07 Oct 8.1 02:58:17 40° SSE 03:00:13 44° SE 03:09:20 10° ENE visible
07 Oct 7.6 04:56:19 16° WSW 05:04:29 87° NNW 05:14:37 10° ENE visible
08 Oct 8.2 02:34:44 40° SE 02:35:07 40° SE 02:44:01 10° ENE visible
08 Oct 7.6 04:32:46 25° WSW 04:39:15 90° NNW 04:49:21 10° ENE visible
09 Oct 8.4 02:11:09 36° ESE 02:11:09 36° ESE 02:18:41 10° ENE visible
09 Oct 7.5 04:09:11 35° WSW 04:14:02 87° SSE 04:24:05 10° ENE visible
10 Oct 8.7 01:47:31 30° ESE 01:47:31 30° ESE 01:53:21 10° ENE visible
10 Oct 7.5 03:45:32 48° SW 03:48:49 84° SSE 03:58:50 10° ENE visible
10 Oct 7.8 05:44:23 10° W 05:54:09 70° N 06:04:16 10° E visible
11 Oct 9.0 01:23:50 23° E 01:23:50 23° E 01:27:58 10° ENE visible
11 Oct 7.4 03:21:52 64° SW 03:23:38 80° SSE 03:33:34 10° ENE visible
11 Oct 7.8 05:19:53 13° W 05:28:52 70° N 05:38:57 10° E visible
12 Oct 9.3 01:00:08 17° E 01:00:08 17° E 01:02:35 10° ENE visible
12 Oct 7.4 02:58:09 76° SSE 02:58:26 76° SSE 03:08:20 10° ENE visible
12 Oct 7.7 04:56:11 20° W 05:03:36 71° N 05:13:39 10° ENE visible
13 Oct 9.6 00:36:24 12° E 00:36:24 12° E 00:37:09 10° ENE visible
13 Oct 7.6 02:34:25 66° ESE 02:34:25 66° ESE 02:43:05 10° ENE visible
13 Oct 7.6 04:32:27 28° W 04:38:19 72° N 04:48:21 10° ENE visible
14 Oct 8.0 02:10:40 51° E 02:10:40 51° E 02:17:49 10° ENE visible
14 Oct 7.6 04:08:41 38° W 04:13:03 73° N 04:23:05 10° ENE visible
15 Oct 8.4 01:46:54 39° E 01:46:54 39° E 01:52:34 10° ENE visible
15 Oct 7.5 03:44:55 51° W 03:47:48 74° NNW 03:57:48 10° ENE visible
15 Oct 7.8 05:43:36 10° WNW 05:53:24 75° NNE 06:03:32 10° E visible
16 Oct 8.8 01:23:07 29° ENE 01:23:07 29° ENE 01:27:18 10° ENE visible
16 Oct 7.4 03:21:08 66° WNW 03:22:32 76° NNW 03:32:30 10° ENE visible
16 Oct 7.8 05:19:09 13° WNW 05:28:08 74° NNE 05:38:15 10° E visible
